Cyclone, PA

1:38 AM EDT on August 27, 2016 (GMT -0400)
Bradford Regional

Weather History for KBFD - April, 2013

Change the Weather History Date:

Thursday, April 18, 2013

  Actual Average Record
Temperature  
Mean Temperature 62 °F 45 °F  
Max Temperature 72 °F 56 °F 84 °F (1976)
Min Temperature 53 °F 33 °F 21 °F (1983)
Degree Days  
Heating Degree Days 3 15  
Month to date heating degree days 330  
Since 1 July heating degree days 6937  
Cooling Degree Days 0 0  
Month to date cooling degree days 0  
Year to date cooling degree days 0  
Growing Degree Days 12 (Base 50)    
Moisture  
Dew Point 49 °F    
Average Humidity 61    
Maximum Humidity 75    
Minimum Humidity 39    
Precipitation  
Precipitation 0.00 in 0.12 in 0.96 in (1969)
Month to date precipitation 2.17  
Year to date precipitation 11.18  
Sea Level Pressure  
Sea Level Pressure 29.96 in    
Wind  
Wind Speed 12 mph (SSE)    
Max Wind Speed 20 mph    
Max Gust Speed 29 mph    
Visibility 10 miles    
Events      
T = Trace of Precipitation, MM = Missing Value Source: NWS Daily Summary

Daily Weather History Graph

Daily Weather History Graph

Search for Another Location

Airport or City:

Trip Planner

Search our weather history database for the weather conditions in past years. The results will help you decide how hot, cold, wet, or windy it might be!

Date:

Astronomy

Apr. 18, 2013 Rise Set
Actual Time 6:29 AM EDT 7:59 PM EDT
Civil Twilight 6:00 AM EDT 8:28 PM EDT
Nautical Twilight 5:25 AM EDT 9:03 PM EDT
Astronomical Twilight 4:47 AM EDT 9:41 PM EDT
Moon 12:38 PM EDT (4/18) 2:13 AM EDT (4/18)
Length of Visible Light 14h 28m
Length of Day
13h 29m
First Quarter, 51% of the Moon is Illuminated
Apr 18
First Quarter
Apr 25
Full
May 2
Last Quarter
May 9
New
May 18
First Quarter

Hourly Weather History & Observations

Time (EDT) Temp. Dew Point Humidity Pressure Visibility Wind Dir Wind Speed Gust Speed Precip Events Conditions
12:53 AM 53.1 °F 30.9 °F 43% 30.15 in 10.0 mi SE 8.1 mph - N/A   Clear
1:53 AM 54.0 °F 30.9 °F 41% 30.13 in 10.0 mi SE 11.5 mph - N/A   Partly Cloudy
2:53 AM 55.0 °F 30.9 °F 40% 30.09 in 10.0 mi SSE 11.5 mph - N/A   Clear
3:53 AM 57.0 °F 32.0 °F 39% 30.06 in 10.0 mi SSE 10.4 mph 19.6 mph N/A   Clear
4:53 AM 57.0 °F 36.0 °F 45% 30.05 in 10.0 mi SSE 10.4 mph 20.7 mph N/A   Clear
5:53 AM 57.0 °F 39.9 °F 53% 30.04 in 10.0 mi SSE 10.4 mph - N/A   Clear
6:53 AM 57.0 °F 43.0 °F 59% 30.05 in 10.0 mi SSE 12.7 mph - N/A   Clear
7:53 AM 59.0 °F 48.0 °F 67% 30.06 in 10.0 mi SSE 12.7 mph 23.0 mph N/A   Clear
8:53 AM 62.1 °F 50.0 °F 65% 30.06 in 10.0 mi SSE 18.4 mph 27.6 mph N/A   Partly Cloudy
9:53 AM 64.0 °F 51.1 °F 63% 30.04 in 10.0 mi SSE 17.3 mph 23.0 mph N/A   Partly Cloudy
10:53 AM 66.9 °F 52.0 °F 59% 30.03 in 10.0 mi SSE 12.7 mph 25.3 mph N/A   Mostly Cloudy
11:53 AM 66.9 °F 53.1 °F 61% 30.01 in 10.0 mi South 12.7 mph 26.5 mph N/A   Mostly Cloudy
12:22 PM 68.0 °F 53.1 °F 59% 30.01 in 10.0 mi SSE 13.8 mph 24.2 mph N/A   Scattered Clouds
12:53 PM 69.1 °F 53.1 °F 57% 29.97 in 10.0 mi South 12.7 mph 26.5 mph N/A   Mostly Cloudy
1:21 PM 70.0 °F 54.0 °F 57% 29.98 in 10.0 mi SSE 16.1 mph 28.8 mph N/A   Scattered Clouds
1:53 PM 70.0 °F 54.0 °F 57% 29.94 in 10.0 mi SSE 12.7 mph 24.2 mph N/A   Scattered Clouds
2:53 PM 71.1 °F 54.0 °F 55% 29.92 in 10.0 mi SSE 12.7 mph 25.3 mph N/A   Clear
3:40 PM 66.9 °F 53.1 °F 61% 29.95 in 10.0 mi SE 19.6 mph 27.6 mph N/A   Mostly Cloudy
3:53 PM 66.0 °F 53.1 °F 63% 29.91 in 10.0 mi SSE 17.3 mph 25.3 mph N/A   Mostly Cloudy
4:05 PM 66.9 °F 54.0 °F 63% 29.94 in 10.0 mi SSE 13.8 mph 26.5 mph N/A   Partly Cloudy
4:36 PM 66.9 °F 54.0 °F 63% 29.93 in 10.0 mi SSE 12.7 mph 26.5 mph N/A   Mostly Cloudy
4:53 PM 64.0 °F 53.1 °F 67% 29.91 in 9.0 mi SSE 17.3 mph 28.8 mph N/A   Mostly Cloudy
5:10 PM 64.0 °F 54.0 °F 70% 29.92 in 9.0 mi SSE 16.1 mph 26.5 mph N/A   Scattered Clouds
5:35 PM 63.0 °F 53.1 °F 70% 29.91 in 9.0 mi SSE 15.0 mph 26.5 mph N/A   Mostly Cloudy
5:53 PM 63.0 °F 54.0 °F 72% 29.89 in 9.0 mi SE 18.4 mph 26.5 mph N/A   Overcast
6:53 PM 62.1 °F 54.0 °F 75% 29.88 in 9.0 mi SSE 13.8 mph 28.8 mph N/A   Overcast
7:53 PM 62.1 °F 54.0 °F 75% 29.86 in 9.0 mi SSE 13.8 mph 25.3 mph N/A   Overcast
8:53 PM 63.0 °F 55.0 °F 75% 29.84 in 10.0 mi SSE 11.5 mph 25.3 mph N/A   Mostly Cloudy
9:00 PM 63.0 °F 55.0 °F 75% 29.87 in 10.0 mi SSE 12.7 mph 23.0 mph N/A   Scattered Clouds
9:53 PM 64.0 °F 54.0 °F 70% 29.84 in 10.0 mi SSE 12.7 mph 25.3 mph N/A   Clear
10:53 PM 64.0 °F 54.0 °F 70% 29.82 in 10.0 mi SSE 15.0 mph 21.9 mph N/A   Clear
11:53 PM 64.0 °F 54.0 °F 70% 29.80 in 10.0 mi SSE 9.2 mph 21.9 mph N/A   Clear